Weather History for Abbotsford, BC

Change the Weather History Date:

Sunday, January 6, 2013

  Actual Average Record
Temperature  
Mean Temperature 40 °F -  
Max Temperature 43 °F 43 °F 57 °F (2002)
Min Temperature 36 °F 31 °F 17 °F (2004)
Degree Days  
Heating Degree Days 26    
Moisture  
Dew Point 38 °F    
Average Humidity 92    
Maximum Humidity 100    
Minimum Humidity 87    
Precipitation  
Precipitation 0.31 in 0.25 in - ()
Sea Level Pressure  
Sea Level Pressure 30.10 in    
Wind  
Wind Speed 5 mph ()    
Max Wind Speed 12 mph    
Max Gust Speed -    
Visibility 11.7 miles    
Events Rain    
Averages and records for this station are not official NWS values.
T = Trace of Precipitation, MM = Missing Value Source: Averaged Metar Reports

Daily Weather History Graph

Daily Weather History Graph

Search for Another Location

Airport:

Trip Planner

Search our weather history database for the weather conditions in past years. The results will help you decide how hot, cold, wet, or windy it might be!

Date:

Astronomy

Jan. 06, 2013 Rise Set
Actual Time 8:02 AM PST 4:28 PM PST
Civil Twilight 7:25 AM PST 5:05 PM PST
Nautical Twilight 6:45 AM PST 5:45 PM PST
Astronomical Twilight 6:07 AM PST 6:23 PM PST
Moon 2:11 AM PST (1/6) 12:09 PM PST (1/6)
Length of Visible Light 9h 39m
Length of Day
8h 25m
Waning Crescent, 32% of the Moon is Illuminated
Jan 6
Waning Crescent
Jan 11
New
Jan 18
First Quarter
Jan 26
Full
Feb 3
Last Quarter

Hourly Weather History & Observations

Time (PST) Temp. Windchill Dew Point Humidity Pressure Visibility Wind Dir Wind Speed Gust Speed Precip Events Conditions
12:00 AM 37.4 °F 32.1 °F 37.4 °F 100% 30.12 in 10.0 mi SW 6.9 mph - N/A   Overcast
1:00 AM 39.2 °F 35.9 °F 37.4 °F 93% 30.12 in 10.0 mi SW 4.6 mph - N/A Rain Light Rain Showers
2:00 AM 39.2 °F - 37.4 °F 93% 30.13 in 10.0 mi SSW 2.3 mph - N/A   Mostly Cloudy
3:00 AM 37.4 °F 33.8 °F 35.6 °F 93% 30.13 in 10.0 mi South 4.6 mph - N/A   Mostly Cloudy
4:00 AM 39 °F - 36 °F 87% 30.12 in 10 mi South 9.2 mph - -   Partly Cloudy
4:00 AM 39.2 °F 33.6 °F 35.6 °F 87% 30.12 in 10.0 mi South 8.1 mph - N/A   Mostly Cloudy
5:00 AM 37.4 °F 33.8 °F 35.6 °F 93% 30.12 in 10.0 mi SW 4.6 mph - N/A   Overcast
6:00 AM 39.2 °F 32.0 °F 37.4 °F 93% 30.12 in 10.0 mi South 11.5 mph - N/A   Mostly Cloudy
7:00 AM 39.2 °F 32.5 °F 37.4 °F 93% 30.13 in 10.0 mi SSW 10.4 mph - N/A   Mostly Cloudy
8:00 AM 37.4 °F 31.4 °F 35.6 °F 93% 30.14 in 20.0 mi SW 8.1 mph - N/A   Overcast
9:00 AM 39.2 °F 34.2 °F 37.4 °F 93% 30.13 in 20.0 mi SW 6.9 mph - N/A   Overcast
9:45 AM 41.0 °F 38.0 °F 37.4 °F 87% 30.15 in 20.0 mi WSW 4.6 mph - N/A Rain Light Rain Showers
10:00 AM 40 °F - 38 °F 88% 30.15 in 19 mi WSW 6.9 mph - - Rain Light Rain Showers
10:00 AM 41.0 °F 37.1 °F 37.4 °F 87% 30.15 in 20.0 mi WSW 5.8 mph - N/A Rain Light Rain Showers
11:00 AM 41.0 °F 38.0 °F 39.2 °F 93% 30.14 in 15.0 mi SW 4.6 mph - N/A Rain Light Rain
12:00 PM 42.8 °F 39.3 °F 39.2 °F 87% 30.12 in 15.0 mi South 5.8 mph - N/A Rain Light Rain
1:00 PM 42.8 °F 38.0 °F 39.2 °F 87% 30.11 in 15.0 mi SW 8.1 mph - N/A Rain Light Rain Showers
2:00 PM 42.8 °F 39.3 °F 39.2 °F 87% 30.11 in 20.0 mi SW 5.8 mph - N/A Rain Light Rain Showers
3:00 PM 42.8 °F - 39.2 °F 87% 30.09 in 15.0 mi Calm Calm - N/A Rain Light Rain
4:00 PM 41 °F - 40 °F 95% 30.09 in 10 mi NNE 5.8 mph - - Rain Light Rain
4:00 PM 41.0 °F 36.4 °F 39.2 °F 93% 30.09 in 10.0 mi NNE 6.9 mph - N/A Rain Light Rain
5:00 PM 41.0 °F 38.0 °F 39.2 °F 93% 30.07 in 7.0 mi North 4.6 mph - N/A Rain Light Rain
6:00 PM 41.0 °F - 39.2 °F 93% 30.07 in 7.0 mi Calm Calm - N/A Rain Light Rain
7:00 PM 39.2 °F 35.9 °F 39.2 °F 100% 30.07 in 7.0 mi North 4.6 mph - N/A Rain Light Rain
8:00 PM 39.2 °F 34.2 °F 39.2 °F 100% 30.06 in 7.0 mi NNE 6.9 mph - N/A Rain Light Rain
9:00 PM 39.2 °F 33.6 °F 37.4 °F 93% 30.03 in 5.0 mi NNE 8.1 mph - N/A Rain Light Rain
10:00 PM 38 °F - 37 °F 95% 30.03 in 6 mi North 4.6 mph - - Rain Light Rain
10:00 PM 37.4 °F 33.8 °F 37.4 °F 100% 30.03 in 6.0 mi North 4.6 mph - N/A Rain Light Rain
11:00 PM 37.4 °F 29.8 °F 35.6 °F 93% 30.01 in 6.0 mi NNE 11.5 mph - N/A Rain Light Rain